[[{"header":{"parameterUnit":"m.s-1","parameterCategory":1,"la1":30.2991,"la2":30.254,"lo1":-89.0895,"lo2":-89.0444,"dy":0.0017,"dx":0.0017,"nx":28,"ny":28,"refTime":"2024-12-05T03:00:00:Z","depth":0,"parameterNumber":2,"parameterNumberName":"U-component_of_WINDS"},"data":[0,0,0,0,0,0,0,0,0,0,0,0,0,0,0,0,0,0,0,0,0,0,0,0,0,0,0,0,0,0,0,0,0,0,0,0,0,0,0,0,0,0,0,0,0,0,0,0,0,0,0,0,0,0,0,0,0,0,-1.0138,-1.0138,0,-1.0177,-1.0177,-1.0178,-1.0162,-1.0161,-1.016,-1.0159,-1.02,-1.0202,-1.0204,0,0,0,0,0,0,0,0,0,0,0,0,0,-1.005,-1.0052,-1.0138,-1.0138,-1.0139,-1.0177,-1.0177,-1.0178,-1.0162,-1.0161,-1.016,-1.0159,-1.0199,-1.0201,-1.0204,0,0,0,0,0,0,0,0,0,0,0,0,0,-1.0088,-1.0052,-1.0138,-1.0136,-1.0136,-1.0176,-1.0177,-1.0178,-1.0163,-1.0161,-1.016,-1.0159,-1.0198,-1.0201,-1.0204,-1.0249,0,0,-1.0213,-1.0214,0,0,0,0,0,0,0,0,-1.0086,-1.0092,-1.0136,-1.0136,-1.0136,-1.0163,-1.0161,-1.0202,-1.0163,-1.0152,-1.0159,-1.0158,-1.0189,-1.0192,-1.0203,-1.0251,-1.0253,-1.0213,-1.0215,-1.0216,-1.0217,0,0,0,0,0,0,0,-1.0084,-1.009,-1.0153,-1.0136,-1.0137,-1.0133,-1.0137,-1.0169,-1.0178,-1.0153,-1.0152,-1.0157,-1.0189,-1.02,-1.0203,-1.0253,-1.0213,-1.0216,-1.0217,-1.0219,-1.034,-1.0341,0,0,0,0,0,0,-1.0081,-1.0088,-1.0152,-1.0154,-1.0107,-1.0135,-1.014,-1.0156,-1.0177,-1.0179,-1.0158,-1.0156,-1.0196,-1.02,-1.0205,-1.0259,-1.0216,-1.0219,-1.022,-1.0338,-1.034,-1.0342,0,0,0,0,0,0,-1.0079,-1.0087,-1.015,-1.0121,-1.0129,-1.0138,-1.0157,-1.0157,-1.0169,-1.0181,-1.0183,-1.0168,-1.0195,-1.0201,-1.0238,-1.026,-1.022,-1.0223,-1.0337,-1.0339,-1.0341,-1.0367,0,0,0,0,0,0,-1.0077,-1.0086,-1.0104,-1.0121,-1.013,-1.0183,-1.0158,-1.0159,-1.0174,-1.0171,-1.0191,-1.0193,-1.0194,-1.0234,-1.0241,-1.0263,-1.0225,-1.0335,-1.0338,-1.034,-1.0365,-1.037,-1.0375,0,0,0,0,0,-1.0074,-1.011,-1.0105,-1.0112,-1.0152,-1.0185,-1.019,-1.0191,-1.0175,-1.0193,-1.0201,-1.0192,-1.0256,-1.0238,-1.0246,-1.0269,-1.0333,-1.0337,-1.034,-1.0362,-1.0369,-1.0375,0,0,0,0,0,0,-1.0095,-1.0112,-1.0107,-1.015,-1.0166,-1.0182,-1.0204,-1.0198,-1.0219,-1.0216,-1.0216,-1.022,-1.0259,-1.0268,-1.0247,-1.0313,-1.0292,-1.0298,-1.0307,-1.0313,-1.0318,-1.0316,-1.0227,0,0,0,0,0,-1.0105,-1.0129,-1.0143,-1.018,-1.0188,-1.0195,-1.0209,-1.0208,-1.0225,-1.0231,-1.0242,-1.0259,-1.0282,-1.0298,-1.0321,-1.0365,-1.0369,-1.0385,-1.039,-1.0395,-1.0399,-1.0423,-1.043,-1.0353,-1.0353,-1.0353,0,0,-1.0125,-1.0137,-1.0153,-1.0184,-1.0197,-1.0222,-1.0201,-1.0229,-1.0248,-1.0236,-1.0272,-1.028,-1.0298,-1.0339,-1.0358,-1.0348,-1.0421,-1.0399,-1.0402,-1.0405,-1.0427,-1.0435,-1.0441,-1.0355,-1.0355,-1.0354,0,0,-1.0175,-1.0187,-1.0219,-1.0231,-1.025,-1.0254,-1.0262,-1.0279,-1.0283,-1.0319,-1.0311,-1.0333,-1.0374,-1.0387,-1.04,-1.0453,-1.0446,-1.0461,-1.0488,-1.0511,-1.0517,-1.0523,-1.0542,-1.0549,-1.0465,-1.0465,-1.0465,0,-1.0199,-1.0237,-1.0236,-1.0265,-1.0278,-1.0268,-1.03,-1.0312,-1.0337,-1.0347,-1.0335,-1.0386,-1.0398,-1.0441,-1.0454,-1.0464,-1.0473,-1.0459,-1.0517,-1.0522,-1.0527,-1.0545,-1.0553,-1.0467,-1.0467,-1.0466,-1.0466,0,-1.0264,-1.0291,-1.0314,-1.0338,-1.0354,-1.0385,-1.0388,-1.0405,-1.0402,-1.0407,-1.0443,-1.0456,-1.0481,-1.0491,-1.0489,-1.0535,-1.0528,-1.0516,-1.0495,-1.0536,-1.0553,-1.056,-1.0469,-1.0469,-1.0468,-1.0468,0,0,-1.0331,-1.0353,-1.0362,-1.0372,-1.0391,-1.0412,-1.0441,-1.0465,-1.0479,-1.0496,-1.0521,-1.0555,-1.0544,-1.0558,-1.0557,-1.0577,-1.0619,-1.0563,-1.0563,-1.0573,-1.0669,-1.0678,-1.0686,-1.0613,-1.0615,-1.0616,-1.0668,0,-1.0383,-1.0434,-1.0434,-1.0481,-1.0505,-1.0495,-1.0521,-1.0535,-1.054,-1.0561,-1.0567,-1.0591,-1.0575,-1.0583,-1.0603,-1.061,-1.0638,-1.0606,-1.0636,-1.0637,-1.0633,-1.0695,-1.0705,-1.0753,-1.0674,-1.0675,-1.0676,0,-1.0451,-1.047,-1.052,-1.0534,-1.0545,-1.0568,-1.0589,-1.0609,-1.0625,-1.0627,-1.0642,-1.0637,-1.0667,-1.0644,-1.0684,-1.0662,-1.0675,-1.068,-1.0682,-1.0685,-1.066,-1.0701,-1.0769,-1.0776,-1.0687,-1.0686,-1.0685,0,-1.0494,-1.0532,-1.0567,-1.0576,-1.0594,-1.0611,-1.0619,-1.0633,-1.0647,-1.0666,-1.0675,-1.0697,-1.0709,-1.0726,-1.0727,-1.071,-1.0767,-1.0745,-1.077,-1.077,-1.0783,-1.0783,-1.0855,-1.079,-1.079,-1.079,-1.079,0,-1.0553,-1.0584,-1.0587,-1.0608,-1.0642,-1.0641,-1.0675,-1.0681,-1.0694,-1.0716,-1.0708,-1.0729,-1.073,-1.0751,-1.0752,-1.0785,-1.0791,-1.0793,-1.0793,-1.0794,-1.0794,-1.0803,-1.08,-1.0792,-1.0792,-1.0791,-1.0791,0,-1.0608,-1.0611,-1.0648,-1.0662,-1.0666,-1.069,-1.0702,-1.0722,-1.0726,-1.0754,-1.0761,-1.0767,-1.0791,-1.0794,-1.0823,-1.0823,-1.0863,-1.0859,-1.0858,-1.0858,-1.0883,-1.088,-1.0964,-1.0974,-1.0902,-1.0903,-1.0904,0,-1.0645,-1.0669,-1.0685,-1.0699,-1.0708,-1.0731,-1.0745,-1.0745,-1.076,-1.0779,-1.0796,-1.082,-1.0839,-1.0878,-1.0885,-1.0907,-1.0904,-1.0932,-1.0907,-1.0907,-1.0905,-1.0903,-1.0906,-1.0937,-1.0937,-1.0938,-1.0939,0,-1.0712,-1.0712,-1.0732,-1.0754,-1.077,-1.0787,-1.0803,-1.0815,-1.0816,-1.0833,-1.0858,-1.0872,-1.0901,-1.0924,-1.0945,-1.0954,-1.0946,-1.0946,-1.0953,-1.0955,-1.0953,-1.0954,-1.0871,-1.0944,-1.0944,-1.0943,-1.0943,-1.0943,-1.0759,-1.0779,-1.0794,-1.0817,-1.0828,-1.0842,-1.0862,-1.0868,-1.0888,-1.0912,-1.091,-1.0937,-1.0951,-1.0978,-1.0988,-1.1009,-1.1,-1.101,-1.1013,-1.1015,-1.1018,-1.0949,-1.1013,-1.1013,-1.1013,-1.1012,-1.1012,0,-1.0825,-1.0834,-1.0855,-1.0876,-1.0894,-1.0885,-1.0901,-1.0917,-1.0941,-1.0955,-1.0973,-1.1001,-1.1024,-1.1032,-1.1054,-1.1069,-1.1066,-1.1075,-1.1074,-1.1076,-1.1025,-1.1017,-1.1077,-1.1077,-1.1077,-1.1077,-1.1077,-1.1076,-1.0862,-1.0895,-1.0897,-1.0936,-1.0944,-1.097,-1.098,-1.0993,-1.1004,-1.1036,-1.1054,-1.1059,-1.107,-1.1093,-1.1112,-1.1114,-1.1123,-1.1133,-1.1133,-1.1086,-1.1079,-1.1073,-1.1066,-1.1135,-1.1135,-1.1182,-1.1183,-1.1183]},{"header":{"parameterUnit":"m.s-1","parameterCategory":1,"la1":30.2991,"la2":30.254,"lo1":-89.0895,"lo2":-89.0444,"dy":0.0017,"dx":0.0017,"nx":28,"ny":28,"refTime":"2024-12-05T03:00:00:Z","depth":0,"parameterNumber":3,"parameterNumberName":"V-component_of_WINDS"},"data":[0,0,0,0,0,0,0,0,0,0,0,0,0,0,0,0,0,0,0,0,0,0,0,0,0,0,0,0,0,0,0,0,0,0,0,0,0,0,0,0,0,0,0,0,0,0,0,0,0,0,0,0,0,0,0,0,0,0,-7.4598,-7.4599,0,-7.4707,-7.4708,-7.4709,-7.463,-7.4626,-7.4623,-7.4619,-7.4725,-7.4731,-7.4737,0,0,0,0,0,0,0,0,0,0,0,0,0,-7.4315,-7.4321,-7.4597,-7.4599,-7.46,-7.4707,-7.4708,-7.471,-7.463,-7.4626,-7.4622,-7.4618,-7.4723,-7.473,-7.4737,0,0,0,0,0,0,0,0,0,0,0,0,0,-7.4432,-7.4322,-7.4597,-7.4574,-7.4573,-7.4706,-7.4708,-7.471,-7.4631,-7.4626,-7.4621,-7.4616,-7.472,-7.4729,-7.4738,-7.4899,0,0,-7.4766,-7.477,0,0,0,0,0,0,0,0,-7.4426,-7.4443,-7.4576,-7.4576,-7.4575,-7.4649,-7.4647,-7.4773,-7.4632,-7.4609,-7.4619,-7.4613,-7.4703,-7.4714,-7.4745,-7.4904,-7.4908,-7.4767,-7.4772,-7.4776,-7.4779,0,0,0,0,0,0,0,-7.4418,-7.4437,-7.464,-7.4578,-7.4577,-7.4556,-7.4567,-7.4671,-7.4684,-7.461,-7.4605,-7.4619,-7.4702,-7.4737,-7.4747,-7.491,-7.4766,-7.4774,-7.478,-7.4784,-7.5207,-7.5213,0,0,0,0,0,0,-7.4412,-7.4431,-7.4637,-7.4644,-7.4486,-7.4565,-7.4577,-7.463,-7.4683,-7.4686,-7.4624,-7.4615,-7.4724,-7.4737,-7.4751,-7.4943,-7.4776,-7.4785,-7.479,-7.5201,-7.5208,-7.5215,0,0,0,0,0,0,-7.4407,-7.4432,-7.4633,-7.4536,-7.456,-7.4576,-7.4636,-7.4635,-7.467,-7.4693,-7.4694,-7.4657,-7.472,-7.4738,-7.4863,-7.4946,-7.4789,-7.4797,-7.5194,-7.5203,-7.5211,-7.533,0,0,0,0,0,0,-7.4399,-7.443,-7.4492,-7.4538,-7.4566,-7.4746,-7.4641,-7.4641,-7.4687,-7.4677,-7.4724,-7.4727,-7.4717,-7.485,-7.4873,-7.4956,-7.4804,-7.5187,-7.5198,-7.5209,-7.5319,-7.5342,-7.5361,0,0,0,0,0,-7.4389,-7.452,-7.4496,-7.4521,-7.4644,-7.475,-7.4766,-7.4754,-7.4694,-7.4756,-7.4771,-7.4726,-7.4933,-7.4864,-7.4888,-7.4975,-7.5182,-7.5195,-7.5208,-7.5309,-7.5337,-7.5361,0,0,0,0,0,0,-7.448,-7.4525,-7.4499,-7.4649,-7.4697,-7.4737,-7.4815,-7.4784,-7.4848,-7.4835,-7.4816,-7.4827,-7.4959,-7.4979,-7.4901,-7.5134,-7.5048,-7.5066,-7.5116,-7.5143,-7.5164,-7.5156,-7.4812,0,0,0,0,0,-7.4518,-7.4603,-7.4636,-7.4765,-7.4791,-7.4799,-7.4845,-7.4832,-7.488,-7.4899,-7.4922,-7.4969,-7.5045,-7.5095,-7.5166,-7.5321,-7.533,-7.5393,-7.5414,-7.5432,-7.5448,-7.5532,-7.5561,-7.5257,-7.5257,-7.5257,0,0,-7.4596,-7.4631,-7.4685,-7.4784,-7.482,-7.4907,-7.4816,-7.4911,-7.4975,-7.4912,-7.5034,-7.5053,-7.5103,-7.5245,-7.5308,-7.5266,-7.5534,-7.5448,-7.5462,-7.5469,-7.5549,-7.5578,-7.5603,-7.5266,-7.5265,-7.5263,0,0,-7.4784,-7.4819,-7.4931,-7.4969,-7.5025,-7.503,-7.5058,-7.5103,-7.5114,-7.5236,-7.5192,-7.5266,-7.5396,-7.5435,-7.5471,-7.5676,-7.5637,-7.5699,-7.581,-7.5893,-7.5917,-7.5938,-7.6011,-7.6038,-7.5715,-7.5716,-7.5716,0,-7.4873,-7.5004,-7.4991,-7.5091,-7.5136,-7.5086,-7.5199,-7.5236,-7.5311,-7.5343,-7.5294,-7.5459,-7.5489,-7.564,-7.569,-7.5721,-7.5751,-7.5694,-7.5915,-7.5936,-7.5955,-7.6025,-7.6053,-7.5723,-7.5722,-7.5721,-7.5721,0,-7.5112,-7.5204,-7.5287,-7.5365,-7.5418,-7.5524,-7.5526,-7.5582,-7.5565,-7.5575,-7.5699,-7.5734,-7.5812,-7.5847,-7.5829,-7.5996,-7.5968,-7.5918,-7.583,-7.5992,-7.6057,-7.6084,-7.5733,-7.5731,-7.5728,-7.5727,0,0,-7.5358,-7.543,-7.5461,-7.5496,-7.5556,-7.5625,-7.5728,-7.5807,-7.5856,-7.5909,-7.5995,-7.6108,-7.6063,-7.6104,-7.6091,-7.6164,-7.6325,-7.6105,-7.6105,-7.6145,-7.6511,-7.6549,-7.658,-7.6299,-7.6304,-7.6308,-7.6507,0,-7.555,-7.5732,-7.5725,-7.5895,-7.5979,-7.5934,-7.6023,-7.6069,-7.6081,-7.6153,-7.6165,-7.6246,-7.618,-7.6205,-7.6275,-7.629,-7.6398,-7.6276,-7.6378,-7.6382,-7.6367,-7.6614,-7.6654,-7.6839,-7.6532,-7.6536,-7.6539,0,-7.5797,-7.5863,-7.6042,-7.6091,-7.6126,-7.6207,-7.628,-7.6349,-7.64,-7.6403,-7.6452,-7.6427,-7.653,-7.6441,-7.6582,-7.65,-7.6541,-7.6555,-7.6561,-7.657,-7.6471,-7.663,-7.6898,-7.6926,-7.6579,-7.6576,-7.6573,0,-7.596,-7.6093,-7.6218,-7.625,-7.6309,-7.6368,-7.6395,-7.644,-7.6489,-7.6551,-7.6582,-7.6655,-7.6695,-7.6751,-7.6746,-7.6682,-7.689,-7.68,-7.6896,-7.6896,-7.6942,-7.6939,-7.7221,-7.6968,-7.6967,-7.6967,-7.6966,0,-7.6174,-7.6286,-7.6293,-7.637,-7.6493,-7.6483,-7.6605,-7.6625,-7.6667,-7.6746,-7.671,-7.6784,-7.6774,-7.6848,-7.6845,-7.6963,-7.6981,-7.6986,-7.6984,-7.699,-7.6989,-7.7016,-7.7004,-7.6974,-7.6972,-7.6971,-7.697,0,-7.6377,-7.6386,-7.652,-7.6567,-7.6581,-7.667,-7.6709,-7.6781,-7.6791,-7.6892,-7.6915,-7.693,-7.7016,-7.7017,-7.7114,-7.7112,-7.7257,-7.7239,-7.7241,-7.7238,-7.7334,-7.7325,-7.7643,-7.7684,-7.7404,-7.7407,-7.7409,0,-7.6514,-7.6599,-7.6656,-7.6708,-7.674,-7.6823,-7.6874,-7.6867,-7.692,-7.6985,-7.705,-7.7133,-7.7199,-7.7338,-7.7357,-7.7431,-7.7416,-7.7522,-7.7426,-7.743,-7.7418,-7.7414,-7.7422,-7.7541,-7.7544,-7.7546,-7.7548,0,-7.6755,-7.6756,-7.6832,-7.691,-7.6971,-7.7031,-7.7087,-7.7131,-7.713,-7.7192,-7.7281,-7.7333,-7.7434,-7.7517,-7.759,-7.7615,-7.7582,-7.7579,-7.7605,-7.7612,-7.761,-7.7613,-7.7293,-7.7571,-7.7569,-7.7567,-7.7566,-7.7565,-7.693,-7.7004,-7.7057,-7.7142,-7.7184,-7.7238,-7.7309,-7.7329,-7.7404,-7.7488,-7.7478,-7.7578,-7.7626,-7.7721,-7.7753,-7.783,-7.7792,-7.783,-7.784,-7.7849,-7.786,-7.7598,-7.7842,-7.7842,-7.7841,-7.7841,-7.784,0,-7.717,-7.7203,-7.7282,-7.7362,-7.743,-7.7396,-7.7455,-7.7513,-7.7602,-7.7652,-7.7719,-7.7822,-7.7902,-7.7928,-7.8006,-7.8062,-7.8049,-7.8083,-7.8079,-7.8086,-7.7889,-7.7859,-7.8093,-7.8092,-7.8092,-7.8092,-7.8092,-7.8092,-7.7304,-7.7429,-7.7436,-7.7581,-7.7612,-7.7712,-7.7749,-7.7798,-7.7837,-7.7955,-7.8023,-7.804,-7.808,-7.8161,-7.8234,-7.8239,-7.8269,-7.831,-7.8309,-7.8124,-7.8099,-7.8075,-7.8047,-7.8316,-7.8317,-7.8499,-7.8501,-7.8502]}]]